Weather History for Lajes, Azores

Change the Weather History Date:

Thursday, October 4, 2012

  Actual Average Record
Temperature  
Mean Temperature 70 °F -  
Max Temperature 75 °F 68 °F 78 °F (2010)
Min Temperature 66 °F 60 °F 56 °F (2013)
Cooling Degree Days 6    
Growing Degree Days 20 (Base 50)    
Moisture  
Dew Point 66 °F    
Average Humidity 86    
Maximum Humidity 100    
Minimum Humidity 73    
Precipitation  
Precipitation 0.71 in - - ()
Sea Level Pressure  
Sea Level Pressure 29.55 in    
Wind  
Wind Speed 20 mph ()    
Max Wind Speed 43 mph    
Max Gust Speed 54 mph    
Visibility 5.6 miles    
Events Rain    
Averages and records for this station are not official NWS values.
T = Trace of Precipitation, MM = Missing Value Source: Averaged Metar Reports

Daily Weather History Graph

Daily Weather History Graph

Search for Another Location

Airport:

Trip Planner

Search our weather history database for the weather conditions in past years. The results will help you decide how hot, cold, wet, or windy it might be!

Date:

Astronomy

Oct. 04, 2012 Rise Set
Actual Time 7:47 AM AZOST 7:25 PM AZOST
Civil Twilight 7:20 AM AZOST 7:52 PM AZOST
Nautical Twilight 6:49 AM AZOST 8:23 PM AZOST
Astronomical Twilight 6:18 AM AZOST 8:54 PM AZOST
Moon 9:56 PM AZOST (10/4) 11:52 AM AZOST (10/4)
Length of Visible Light 12h 31m
Length of Day
11h 38m
Waning Gibbous, 83% of the Moon is Illuminated
Oct 4
Waning Gibbous
Oct 8
Last Quarter
Oct 15
New
Oct 22
First Quarter
Oct 29
Full

Hourly Weather History & Observations

Time (AZOST) Temp. Dew Point Humidity Pressure Visibility Wind Dir Wind Speed Gust Speed Precip Events Conditions
12:00 AM 68 °F 66 °F 90% 29.88 in 6 mi SE 20.1 mph - -   Mostly Cloudy
12:00 AM 68.0 °F 66.2 °F 94% 29.86 in 6.2 mi SE 19.6 mph - N/A   Scattered Clouds
1:00 AM 68.0 °F 64.4 °F 88% 29.83 in 6.2 mi SE 20.7 mph - N/A   Scattered Clouds
2:00 AM 68.0 °F 64.4 °F 88% 29.83 in 6.2 mi SE 21.9 mph - N/A   Mostly Cloudy
3:00 AM 69 °F 65 °F 81% 29.80 in 6 mi SE 22.4 mph - -   Scattered Clouds
3:00 AM 69.8 °F 64.4 °F 83% 29.80 in 6.2 mi SE 21.9 mph - N/A   Mostly Cloudy
4:00 AM 69.8 °F 62.6 °F 78% 29.77 in 6.2 mi SE 20.7 mph - N/A   Mostly Cloudy
5:00 AM 69.8 °F 64.4 °F 83% 29.68 in 6.2 mi SE 25.3 mph - N/A Rain Light Rain Showers
6:00 AM 70 °F 65 °F 79% 29.64 in 6 mi SE 26.8 mph - - Rain Light Rain Showers
6:00 AM 69.8 °F 64.4 °F 83% 29.62 in 6.2 mi SE 27.6 mph - N/A   Mostly Cloudy
7:00 AM 68.0 °F 66.2 °F 94% 29.56 in 6.2 mi SE 38.0 mph - N/A Rain Light Rain Showers
8:00 AM 66.2 °F 66.2 °F 100% 29.50 in 6.2 mi ESE 42.6 mph 54.1 mph N/A Rain Light Rain Showers
9:00 AM 67 °F 67 °F 99% 29.40 in 2 mi ESE 38.0 mph - - Rain Light Rain
9:00 AM 68.0 °F 66.2 °F 94% 29.39 in 1.9 mi ESE 38.0 mph 51.8 mph N/A Rain Light Rain
10:00 AM 69.8 °F 68.0 °F 94% 29.33 in 3.7 mi South 29.9 mph 43.7 mph N/A Rain Light Rain
11:00 AM 68.0 °F 68.0 °F 100% 29.36 in 3.7 mi SSW 32.2 mph 43.7 mph N/A   Mostly Cloudy
12:00 PM 70 °F 67 °F 88% 29.44 in 6 mi SSW 29.1 mph - - Rain Light Rain
12:00 PM 69.8 °F 68.0 °F 94% 29.42 in 5.6 mi SSW 29.9 mph 46.0 mph N/A Rain Light Rain
1:00 PM 69.8 °F 68.0 °F 94% 29.44 in 3.7 mi South 26.5 mph 39.1 mph N/A Rain Light Rain
2:00 PM 69.8 °F 68.0 °F 94% 29.44 in 6.2 mi SSW 25.3 mph 39.1 mph N/A   Mostly Cloudy
3:00 PM 73 °F 69 °F 82% 29.45 in 6 mi SSW 26.8 mph - -   Partly Cloudy
3:00 PM 73.4 °F 68.0 °F 83% 29.44 in 6.2 mi SSW 26.5 mph 38.0 mph N/A   Scattered Clouds
4:00 PM 75.2 °F 66.2 °F 73% 29.44 in 6.2 mi SW 15.0 mph 26.5 mph N/A   Scattered Clouds
5:00 PM 75.2 °F 66.2 °F 73% 29.44 in 6.2 mi West 9.2 mph - N/A   Partly Cloudy
6:00 PM 72 °F 65 °F 74% 29.49 in 6 mi SSW 13.4 mph - -   Partly Cloudy
6:00 PM 71.6 °F 66.2 °F 83% 29.47 in 6.2 mi SW 12.7 mph - N/A   Scattered Clouds
7:00 PM 71.6 °F 64.4 °F 78% 29.47 in 6.2 mi SW 6.9 mph - N/A   Scattered Clouds
8:00 PM 71.6 °F 64.4 °F 78% 29.47 in 6.2 mi WSW 6.9 mph - N/A   Scattered Clouds
9:00 PM 71 °F 65 °F 74% 29.51 in 6 mi SW 8.9 mph - -   Mostly Cloudy
9:00 PM 71.6 °F 64.4 °F 78% 29.50 in 6.2 mi SW 8.1 mph - N/A   Scattered Clouds
10:00 PM 69.8 °F 66.2 °F 88% 29.50 in 6.2 mi SW 6.9 mph - N/A   Scattered Clouds
11:00 PM 69.8 °F 64.4 °F 83% 29.50 in 6.2 mi SW 8.1 mph - N/A   Partly Cloudy